Regional Weather Roundup
Issued by NWS Little Rock, AR

Home | Current Version | Previous Version | Text Only | Print | Product List | Glossary Off
Versions: 1 2 3 4 5 6 7 8 9 10 11 12 13 14 15 16 17 18 19 20 21 22 23 24 25 26 27 28 29 30 31 32

000
ASUS44 KLZK 251005
RWRLZK

WEATHER ROUNDUP FOR ARKANSAS
NATIONAL WEATHER SERVICE LITTLE ROCK AR
400 AM CST SAT FEB 25 2017

NOTE: "FAIR" INDICATES FEW OR NO CLOUDS BELOW 12,000 FEET WITH NO
SIGNIFICANT WEATHER AND/OR OBSTRUCTIONS TO VISIBILITY.

ARZ001-003-010-029-251100-
NORTHWEST ARKANSAS

CITY           SKY/WX    TMP DP  RH WIND       PRES   REMARKS
FAYETTEVILLE   PTCLDY    27  19  72 N10       30.11R WCI  17
FORT SMITH     CLEAR     33  20  58 NW13      30.14S WCI  24
HARRISON       PTCLDY    27  16  63 NW16G30   30.05R WCI  15
BENTONVILLE    CLEAR     27  16  63 NW9       30.11F WCI  17
ROGERS         CLEAR     26  18  71 NW10      30.11S WCI  16
SILOAM SPGS    PTCLDY    25  14  63 N13       30.13R WCI  13
HIGHFILL       CLEAR     25  17  72 NW13      30.11S WCI  14
$$

ARZ004-005-016-251100-
NORTH CENTRAL ARKANSAS

CITY           SKY/WX    TMP DP  RH WIND       PRES   REMARKS
BATESVILLE     CLEAR     34  19  55 W8        30.05R WCI  27
FLIPPIN        CLEAR     30  16  55 NW12G24   30.05R WCI  21
MTN HOME       MOCLDY    30  18  60 N10G23    30.03R WCI  21
$$

ARZ040-041-251100-
WEST CENTRAL ARKANSAS

CITY           SKY/WX    TMP DP  RH WIND       PRES   REMARKS
MENA           CLEAR     34  23  64 NW8G20    30.08F WCI  27
MOUNT IDA      CLEAR     33  20  58 NW9G18    30.07R WCI  25
$$

ARZ009-017-025-026-028-251100-
NORTHEAST ARKANSAS

CITY           SKY/WX    TMP DP  RH WIND       PRES   REMARKS
CORNING        PTSUNNY   34  23  64 NW15      30.01R WCI  24
JONESBORO      CLEAR     36  22  56 NW13G21   30.01R
NEWPORT        CLEAR     34  22  61 NW22      30.04R WCI  22
WALNUT RIDGE   CLEAR     34  18  51 NW18      30.01R WCI  23
BLYTHEVILLE    CLEAR     37  25  61 NW15G23   29.98R
$$

ARZ022-023-033-042-044-251100-
CENTRAL ARKANSAS

CITY           SKY/WX    TMP DP  RH WIND       PRES   REMARKS
LITTLE ROCK    CLEAR     36  24  62 NW16G22   30.06R
N LITTLE ROCK    N/A     35  24  63 NW9G20    30.06R WCI  28
JACKSONVILLE   CLEAR     37  24  60 NW8       30.05R
SEARCY         CLEAR     35  23  61 NW8       30.07R WCI  29
HOT SPRINGS    CLEAR     36  23  59 NW8       30.07R
RUSSELLVILLE   CLEAR     34  22  61 W10       30.08F WCI  26
CLINTON        FAIR      34  21  60 VRB6G14   30.07R WCI  29
$$

ARZ036-251100-
EAST ARKANSAS

CITY           SKY/WX    TMP DP  RH WIND       PRES   REMARKS
WEST MEMPHIS   CLEAR     37  27  67 NW13G25   30.00R
$$

ARZ050-053-066-070-073-251100-
SOUTHWEST ARKANSAS

CITY           SKY/WX    TMP DP  RH WIND       PRES   REMARKS
ARKADELPHIA    FAIR      38  25  59 NW8       30.09R
CAMDEN         CLEAR     39  23  52 NW6       30.08R
TEXARKANA      CLEAR     37  26  64 N7        30.09R
EL DORADO      CLEAR     41  28  60 NW10      30.07R
DE QUEEN       CLEAR     34  24  67 NW5       30.09S WCI  30
$$

ARZ056-057-069-251100-
SOUTHEAST ARKANSAS

CITY           SKY/WX    TMP DP  RH WIND       PRES   REMARKS
PINE BLUFF     CLEAR     39  26  59 NW9       30.05R
STUTTGART      CLEAR     39  21  48 NW15      30.04R
MONTICELLO     CLEAR     43  27  53 NW8       30.03R

$$






USA.gov is the U.S. government's official web portal to all federal, state and local government web resources and services.